sat.trackr.live / text

‹ back to catalog

STARLINK-30474

NORAD 57897 · 2023-146G

PAYLOAD ACTIVE UNKNOWN

§ Identity

Operator
Country
US
Launch date
2023-09-20
Launch site
AFETR
Launch vehicle
Mass (kg)
RCS (m²)

Purposes: comms

External: N2YO · Heavens-Above · Gunter

§ Orbital elements

Epoch: 2026-05-24T23:29:39.049152Z

Period
94.27 min
Inclination
43.0012°
Eccentricity
0.0001422
Mean motion
15.27587069 rev/d
Perigee alt
482.1 km
Apogee alt
484.0 km
Semi-major
6,861.2 km
B*
4.0009e-5
RAAN
243.3717°
Arg perigee
272.5403°
Mean anomaly
87.5286°
Rev number
14,872

§ Raw data

STARLINK-304741 57897U 23146G   26144.97892418  .00000839  00000+0  40009-4 0  99932 57897  43.0012 243.3717 0001422 272.5403  87.5286 15.27587069148725

JSON: /api/v1/satellites/57897 · /tle

For live sub-satellite position, see the globe view (requires WebGL).

§ Visibility from observer

Set your observer location to see the next 7 days of passes ≥ 10°. The values pass through the URL so the page stays shareable.

No JS? Fill the form by hand. The geolocation button needs JavaScript.